Location: Banios
(43.0451°N, 0.2335°E)
Time: 00:55:58
(UTC+00:00)

BlueWalker 3 - Visible Passes

Search period start: 29 November 2022 00:00
Search period end: 09 December 2022 00:00
Orbit: 500 x 519 km, 53.2° (Epoch: 28 November)

Date Brightness Start Highest point End Pass type
(mag) Time Alt. Az. Time Alt. Az. Time Alt. Az.
29 Nov 3.0 16:52:07 10° W 16:55:47 37° NNW 16:59:27 10° NE visible
29 Nov 4.0 18:32:28 10° NW 18:34:58 18° NNW 18:34:58 18° NNW visible
30 Nov 3.8 18:14:10 10° NW 18:16:58 18° N 18:17:19 18° N visible
01 Dec 3.8 17:55:50 10° NW 17:58:39 18° N 17:59:39 17° NNE visible
02 Dec 3.9 17:37:31 10° NW 17:40:18 18° N 17:42:00 14° NNE visible
02 Dec 5.0 19:16:42 10° NW 19:16:49 11° NW 19:16:49 11° NW visible
03 Dec 3.8 17:19:11 10° NW 17:21:58 18° N 17:24:22 12° NE visible
03 Dec 4.5 18:58:18 10° NW 18:59:11 15° NNW 18:59:11 15° NNW visible
04 Dec 3.8 17:00:50 10° NW 17:03:37 18° N 17:06:24 10° NE visible
04 Dec 4.0 18:39:54 10° NW 18:41:35 20° NNW 18:41:35 20° NNW visible
05 Dec 3.4 18:21:30 10° NW 18:24:01 25° N 18:24:01 25° N visible
06 Dec 3.0 18:03:05 10° NW 18:06:31 29° NNE 18:06:31 29° NNE visible
07 Dec 3.0 17:44:40 10° NW 17:48:09 29° NNE 17:49:08 26° NE visible
07 Dec 4.8 19:23:12 10° WNW 19:23:59 15° WNW 19:23:59 15° WNW visible
08 Dec 2.9 17:26:15 10° NW 17:29:46 31° NNE 17:31:51 19° ENE visible
08 Dec 3.9 19:04:47 10° WNW 19:06:43 27° WNW 19:06:43 27° WNW visible
